GW3885 Weather Reports


Display with metric or nautical units.
time (UTC)temp
F
wind
direction
speed
MPH
gust
MPH
rain 1hr
in
rain 24hr
in
rain mn
in
humidity
%
barometer
mb
20260510060556 69 90 3.0 7.0 0.00 0.04 0.00 92 1011.1
20260510060058 69 87 3.0 7.0 0.00 0.04 0.00 92 1011.0
20260510055555 69 88 3.0 6.0 0.00 0.04 0.00 91 1011.1
20260510055057 69 95 2.0 6.0 0.00 0.04 0.00 90 1011.0
20260510054554 69 121 1.0 7.0 0.00 0.04 0.00 91 1010.9
20260510054053 69 121 2.0 7.0 0.00 0.04 0.00 90 1010.8
20260510053555 70 98 3.0 6.0 0.00 0.04 0.00 90 1011.0
20260510053055 70 118 1.0 5.0 0.00 0.04 0.00 90 1010.9
20260510052556 70 128 2.0 5.0 0.00 0.04 0.00 89 1010.9
20260510052055 70 126 2.0 5.0 0.00 0.04 0.00 89 1010.8
20260510051559 70 134 2.0 5.0 0.00 0.04 0.00 89 1010.8
20260510051057 70 136 2.0 4.0 0.00 0.04 0.00 88 1010.6
20260510050554 71 136 2.0 4.0 0.00 0.04 0.00 88 1010.6
20260510050058 71 137 2.0 4.0 0.00 0.04 0.00 88 1010.5
20260510045555 71 0 2.0 9.0 0.00 0.04 0.04 87 1010.3
20260510045055 71 145 3.0 9.0 0.00 0.04 0.04 88 1010.1
20260510044557 71 172 3.0 7.0 0.00 0.04 0.04 88 1010.1
20260510044054 71 166 3.0 6.0 0.00 0.04 0.04 88 1010.2
20260510043557 71 180 3.0 6.0 0.00 0.04 0.04 89 1010.2
20260510043058 70 178 2.0 4.0 0.00 0.04 0.04 89 1010.3
20260510042555 70 178 1.0 4.0 0.00 0.04 0.04 89 1010.4
20260510042054 70 178 1.0 4.0 0.00 0.04 0.04 87 1010.4
20260510041556 71 178 2.0 3.0 0.00 0.04 0.04 87 1010.4
20260510041056 71 178 2.0 4.0 0.00 0.04 0.04 87 1010.2
20260510040556 71 178 1.0 5.0 0.00 0.04 0.04 87 1010.3
20260510040058 71 179 3.0 5.0 0.00 0.04 0.04 87 1010.1
20260510035555 71 165 2.0 5.0 0.00 0.04 0.04 87 1010.2
20260510035055 71 154 0.0 3.0 0.00 0.04 0.04 86 1010.2
20260510034556 71 0 1.0 3.0 0.00 0.04 0.04 85 1010.1
20260510034055 71 154 1.0 3.0 0.00 0.04 0.04 85 1010.1
20260510033554 72 154 1.0 3.0 0.00 0.04 0.04 84 1010.0
20260510033126 72 155 1.0 2.0 0.00 0.04 0.04 84 1010.0
20260510032554 72 155 1.0 3.0 0.00 0.04 0.04 84 1010.0
20260510032055 73 155 1.0 5.0 0.00 0.04 0.04 83 1009.9
20260510031558 73 155 1.0 5.0 0.00 0.04 0.04 83 1009.8
20260510031054 73 153 2.0 5.0 0.00 0.04 0.04 83 1009.7
20260510030554 73 128 2.0 5.0 0.00 0.04 0.04 82 1009.8
20260510030059 74 151 2.0 5.0 0.00 0.04 0.04 82 1009.7
20260510025554 74 152 2.0 6.0 0.00 0.04 0.04 81 1009.6
20260510025054 74 143 2.0 8.0 0.00 0.04 0.04 80 1009.6
20260510024605 75 117 2.0 8.0 0.00 0.04 0.04 80 1009.5
20260510024058 75 141 4.0 7.0 0.00 0.04 0.04 79 1009.4
20260510023554 76 115 2.0 4.0 0.00 0.04 0.04 78 1009.2
20260510023057 76 136 1.0 5.0 0.00 0.04 0.04 77 1009.0
20260510022554 77 159 1.0 6.0 0.00 0.04 0.04 76 1008.7
20260510022055 77 171 2.0 6.0 0.00 0.04 0.04 75 1008.6
20260510021601 77 196 2.0 10.0 0.00 0.04 0.04 75 1008.4
20260510021054 77 173 3.0 10.0 0.00 0.04 0.04 74 1008.3
20260510020555 78 165 4.0 10.0 0.00 0.04 0.04 74 1008.4
20260510020112 78 152 4.0 11.0 0.00 0.04 0.04 74 1008.3
20260510015555 78 180 4.0 11.0 0.00 0.04 0.04 73 1008.1
20260510015055 78 150 6.0 13.0 0.00 0.04 0.04 73 1008.1
20260510014603 78 183 6.0 15.0 0.00 0.04 0.04 72 1008.0
20260510014055 78 195 7.0 15.0 0.00 0.04 0.04 72 1007.9
20260510013556 79 194 6.0 15.0 0.00 0.04 0.04 73 1008.2
20260510013106 79 181 5.0 9.0 0.00 0.04 0.04 73 1008.1
20260510012558 79 186 5.0 10.0 0.00 0.04 0.04 73 1008.1
20260510012054 80 204 5.0 11.0 0.00 0.04 0.04 73 1008.2
20260510011606 80 170 6.0 12.0 0.00 0.04 0.04 72 1008.2
20260510011055 80 174 6.0 12.0 0.00 0.04 0.04 72 1008.4
20260510010555 81 204 4.0 10.0 0.00 0.04 0.04 72 1008.3
20260510010056 81 170 4.0 10.0 0.00 0.04 0.04 72 1008.4
20260510005555 81 123 3.0 10.0 0.00 0.04 0.04 71 1008.4
20260510005054 82 173 4.0 12.0 0.00 0.04 0.04 70 1008.4
20260510004600 82 166 3.0 16.0 0.00 0.04 0.04 69 1008.4
20260510004055 83 156 5.0 16.0 0.00 0.04 0.04 68 1008.4
20260510003555 83 171 6.0 15.0 0.00 0.04 0.04 68 1008.3
20260510003106 84 162 5.0 15.0 0.00 0.04 0.04 67 1008.2
20260510002556 84 195 5.0 17.0 0.00 0.04 0.04 67 1008.1
20260510002052 85 167 6.0 17.0 0.00 0.04 0.04 66 1008.1
20260510001602 86 130 6.0 17.0 0.00 0.04 0.04 64 1008.0
20260510001052 87 173 8.0 17.0 0.00 0.04 0.04 62 1007.8
20260510000552 88 142 5.0 11.0 0.00 0.04 0.04 60 1007.6
20260510000058 89 123 6.0 11.0 0.00 0.04 0.04 60 1007.6
20260509235553 89 153 5.0 11.0 0.00 0.04 0.04 60 1007.4
20260509235053 89 147 3.0 10.0 0.00 0.04 0.04 60 1007.4
20260509234614 89 150 4.0 9.0 0.00 0.04 0.04 61 1007.3
20260509234052 88 138 3.0 7.0 0.00 0.04 0.04 61 1007.3
20260509233556 87 105 2.0 7.0 0.00 0.04 0.04 62 1007.3
20260509233058 87 116 3.0 7.0 0.00 0.04 0.04 61 1007.3
20260509232552 86 123 2.0 8.0 0.00 0.04 0.04 63 1007.4
20260509232052 86 124 3.0 10.0 0.00 0.04 0.04 63 1007.4
20260509231601 86 132 5.0 10.0 0.00 0.04 0.04 61 1007.4
20260509231054 87 144 5.0 8.0 0.00 0.04 0.04 62 1007.3
20260509230551 87 137 2.0 8.0 0.00 0.04 0.04 61 1007.4
20260509225554 88 126 4.0 8.0 0.00 0.04 0.04 59 1007.3
20260509225051 89 138 3.0 7.0 0.00 0.04 0.04 58 1007.3
20260509224602 89 131 2.0 7.0 0.00 0.04 0.04 59 1007.3
20260509224052 88 58 2.0 4.0 0.00 0.04 0.04 59 1007.3
20260509223552 88 57 2.0 4.0 0.00 0.04 0.04 57 1007.4
20260509223102 88 57 2.0 5.0 0.00 0.04 0.04 58 1007.5
20260509222556 88 57 2.0 5.0 0.00 0.04 0.04 58 1007.5
20260509222052 88 57 3.0 5.0 0.00 0.04 0.04 56 1007.3
20260509221555 88 55 2.0 5.0 0.00 0.04 0.04 56 1007.3
20260509221052 89 54 3.0 5.0 0.00 0.04 0.04 54 1007.4
20260509220552 89 51 2.0 6.0 0.00 0.04 0.04 54 1007.3
20260509220058 90 0 2.0 6.0 0.00 0.04 0.04 53 1007.4
20260509215555 91 40 2.0 6.0 0.00 0.04 0.04 51 1007.5
20260509215052 91 5 2.0 6.0 0.00 0.04 0.04 51 1007.4
20260509214555 92 0 1.0 8.0 0.00 0.04 0.04 50 1007.4
20260509214056 93 9 2.0 8.0 0.00 0.04 0.04 49 1007.4
20260509213552 94 313 4.0 8.0 0.00 0.04 0.04 49 1007.4
20260509213059 94 298 0.0 7.0 0.00 0.04 0.04 50 1007.4
20260509212555 93 0 2.0 7.0 0.00 0.04 0.04 46 1007.4
20260509212054 93 0 2.0 9.0 0.00 0.04 0.04 47 1007.4
20260509211557 92 296 5.0 9.0 0.00 0.04 0.04 50 1007.5
20260509211052 91 11 4.0 8.0 0.00 0.04 0.04 53 1007.5
20260509210552 90 319 2.0 5.0 0.00 0.04 0.04 55 1007.4
20260509210059 90 304 1.0 8.0 0.00 0.04 0.04 52 1007.5
20260509205551 90 0 1.0 8.0 0.00 0.04 0.04 49 1007.6
20260509205054 90 48 1.0 6.0 0.00 0.04 0.04 54 1007.7
20260509204601 90 33 3.0 6.0 0.00 0.04 0.04 52 1007.7
20260509204055 91 27 1.0 6.0 0.00 0.04 0.04 52 1007.8
20260509203555 92 0 1.0 8.0 0.00 0.04 0.04 51 1007.8
20260509203113 91 26 3.0 8.0 0.00 0.04 0.04 54 1007.9
20260509202552 91 318 2.0 8.0 0.00 0.04 0.04 57 1008.0
20260509202054 91 218 4.0 9.0 0.00 0.04 0.04 53 1008.0
20260509201553 90 241 3.0 9.0 0.00 0.04 0.04 52 1008.0
20260509201054 90 236 4.0 8.0 0.00 0.04 0.04 54 1008.1
20260509200551 90 63 0.0 7.0 0.00 0.04 0.04 54 1008.2
20260509200057 90 56 2.0 9.0 0.00 0.04 0.04 54 1008.2
20260509195555 90 0 3.0 11.0 0.00 0.04 0.04 53 1008.4
20260509195054 90 269 6.0 11.0 0.00 0.04 0.04 54 1008.5
20260509194555 90 288 3.0 9.0 0.00 0.04 0.04 54 1008.5
20260509194055 90 250 4.0 13.0 0.00 0.04 0.04 52 1008.5
20260509193555 91 227 3.0 13.0 0.00 0.04 0.04 54 1008.5
20260509193100 91 284 4.0 13.0 0.00 0.04 0.04 54 1008.6
20260509192552 91 207 4.0 9.0 0.00 0.04 0.04 54 1008.6
20260509192054 90 225 4.0 9.0 0.00 0.04 0.04 53 1008.7
20260509191554 90 0 3.0 9.0 0.00 0.04 0.04 53 1008.7
20260509191055 89 71 1.0 9.0 0.00 0.04 0.04 54 1008.8
20260509190556 90 281 1.0 5.0 0.00 0.04 0.04 52 1008.9
20260509190057 90 52 2.0 9.0 0.00 0.04 0.04 53 1009.0
20260509185558 89 27 3.0 9.0 0.00 0.04 0.04 56 1009.0
20260509185054 89 282 3.0 9.0 0.00 0.04 0.04 57 1009.0
20260509184556 89 5 2.0 7.0 0.00 0.04 0.04 54 1008.9
20260509184055 89 299 3.0 7.0 0.00 0.04 0.04 56 1009.1
20260509183552 88 317 1.0 8.0 0.00 0.04 0.04 58 1009.3
20260509183104 88 32 2.0 8.0 0.00 0.04 0.04 53 1009.4
20260509182552 89 269 2.0 6.0 0.00 0.04 0.04 60 1009.4
20260509182052 88 0 1.0 4.0 0.00 0.04 0.04 56 1009.4
20260509181610 87 37 2.0 6.0 0.00 0.04 0.04 57 1009.5
20260509181051 87 74 1.0 6.0 0.00 0.04 0.04 58 1009.6
20260509180555 87 72 2.0 6.0 0.00 0.04 0.04 58 1009.7
20260509180117 87 23 0.0 5.0 0.00 0.04 0.04 58 1009.7
20260509175552 86 69 1.0 4.0 0.00 0.04 0.04 58 1009.8
20260509175057 86 209 1.0 8.0 0.00 0.04 0.04 58 1010.0
20260509174554 86 258 2.0 8.0 0.00 0.04 0.04 58 1010.0
20260509174052 86 251 4.0 7.0 0.00 0.04 0.04 62 1010.0
20260509173552 86 311 2.0 5.0 0.00 0.04 0.04 61 1010.2
20260509173109 85 0 0.0 7.0 0.00 0.04 0.04 63 1010.2
20260509172556 85 267 3.0 7.0 0.00 0.04 0.04 64 1010.3
20260509172055 86 261 2.0 8.0 0.00 0.04 0.04 64 1010.1
20260509171555 85 314 1.0 10.0 0.00 0.04 0.04 65 1010.2
20260509171055 85 236 4.0 10.0 0.00 0.04 0.04 62 1010.2
20260509170554 85 292 4.0 10.0 0.00 0.04 0.04 64 1010.2
20260509170057 85 297 3.0 9.0 0.00 0.04 0.04 66 1010.1
20260509165552 85 307 3.0 9.0 0.00 0.04 0.04 67 1010.1
20260509165051 85 319 1.0 8.0 0.00 0.04 0.04 64 1010.1
20260509164555 85 319 2.0 6.0 0.00 0.04 0.04 63 1010.2
20260509164052 85 319 2.0 6.0 0.00 0.04 0.04 68 1010.2
20260509163552 85 5 2.0 6.0 0.00 0.04 0.04 69 1010.0
20260509163055 84 87 1.0 3.0 0.00 0.04 0.04 69 1009.8
20260509162551 83 0 0.0 4.0 0.00 0.04 0.04 70 1009.7
20260509162050 83 0 1.0 5.0 0.00 0.04 0.04 69 1009.4
20260509161602 82 249 0.0 6.0 0.00 0.04 0.04 68 1009.4
20260509161051 82 250 2.0 10.0 0.00 0.04 0.04 70 1009.6
20260509160555 82 275 0.0 10.0 0.00 0.04 0.04 71 1009.6
20260509160058 83 277 6.0 10.0 0.00 0.04 0.04 69 1009.7
20260509155551 83 240 3.0 10.0 0.00 0.04 0.04 71 1009.4
20260509155056 82 288 3.0 11.0 0.00 0.04 0.04 73 1009.3
20260509154612 82 247 4.0 11.0 0.00 0.04 0.04 72 1009.6
20260509154058 81 236 6.0 10.0 0.00 0.04 0.04 75 1009.7
20260509153559 80 247 4.0 10.0 0.00 0.04 0.04 81 1009.6
20260509153110 79 213 5.0 10.0 0.00 0.04 0.04 80 1009.7
20260509152555 79 234 2.0 8.0 0.00 0.04 0.04 83 1009.7
20260509152059 79 226 3.0 9.0 0.00 0.04 0.04 85 1009.9
20260509151607 78 223 4.0 9.0 0.00 0.04 0.04 85 1009.6
20260509151056 77 178 5.0 9.0 0.00 0.04 0.04 85 1009.4
20260509150600 77 200 4.0 9.0 0.00 0.04 0.04 86 1009.6
20260509150059 77 233 5.0 10.0 0.00 0.04 0.04 87 1009.8
20260509145557 77 213 6.0 10.0 0.00 0.04 0.04 87 1009.7
20260509145056 77 204 5.0 9.0 0.00 0.04 0.04 89 1009.5
20260509144557 77 200 4.0 7.0 0.00 0.04 0.04 89 1009.7
20260509144056 76 221 2.0 7.0 0.00 0.04 0.04 89 1010.1
20260509143556 76 221 3.0 7.0 0.00 0.04 0.04 90 1010.2
20260509143109 76 254 2.0 6.0 0.00 0.04 0.04 90 1010.3
20260509142556 76 262 2.0 4.0 0.00 0.04 0.04 90 1010.2
20260509142056 76 261 2.0 4.0 0.00 0.04 0.04 89 1010.3
20260509141559 76 0 1.0 2.0 0.00 0.04 0.04 90 1010.2
20260509141057 76 0 0.0 2.0 0.00 0.04 0.04 89 1010.2
20260509140556 76 0 0.0 2.0 0.00 0.04 0.04 90 1010.3
20260509140058 76 0 0.0 2.0 0.00 0.04 0.04 91 1010.1
20260509135559 76 0 1.0 2.0 0.00 0.04 0.04 91 1010.1
20260509135055 75 0 0.0 3.0 0.00 0.04 0.04 92 1010.2
20260509134557 75 0 0.0 3.0 0.00 0.04 0.04 92 1010.4
20260509134056 75 0 1.0 3.0 0.00 0.04 0.04 93 1010.3
20260509133557 75 0 0.0 3.0 0.00 0.04 0.04 93 1010.2
20260509133107 75 0 1.0 3.0 0.00 0.04 0.04 93 1010.2
20260509132557 74 261 0.0 3.0 0.00 0.04 0.04 92 1010.1
20260509132056 74 0 0.0 4.0 0.00 0.04 0.04 92 1009.8
20260509131556 74 261 2.0 5.0 0.00 0.04 0.04 91 1009.9
20260509131056 74 0 1.0 8.0 0.00 0.04 0.04 91 1009.8
20260509130556 74 315 4.0 10.0 0.00 0.04 0.04 91 1009.8
20260509130115 74 297 3.0 14.0 0.00 0.04 0.04 91 1010.0
20260509125557 75 319 7.0 15.0 0.00 0.04 0.04 91 1009.9
20260509125056 75 10 8.0 15.0 0.00 0.04 0.04 90 1009.9
20260509124559 74 319 5.0 10.0 0.00 0.04 0.04 89 1009.7
20260509124056 74 360 3.0 23.0 0.00 0.04 0.04 91 1009.6
20260509123559 74 239 12.0 23.0 0.00 0.04 0.04 93 1009.8
20260509123055 74 299 11.0 18.0 0.01 0.04 0.04 92 1009.6
20260509122556 74 296 5.0 22.0 0.01 0.04 0.04 92 1009.6
20260509122056 74 214 6.0 31.0 0.01 0.04 0.04 92 1008.6
20260509121555 74 169 16.0 35.0 0.02 0.04 0.04 92 1007.5
20260509121059 73 170 16.0 35.0 0.02 0.04 0.04 94 1006.5
20260509120556 73 123 21.0 34.0 0.03 0.04 0.04 96 1006.0
20260509120100 73 170 15.0 27.0 0.03 0.04 0.04 96 1006.4
20260509115555 73 130 12.0 30.0 0.03 0.04 0.04 96 1007.1
20260509115055 73 126 17.0 30.0 0.03 0.04 0.04 97 1006.8
20260509114558 73 146 15.0 23.0 0.04 0.04 0.04 97 1007.5
20260509114101 73 135 13.0 23.0 0.04 0.04 0.04 97 1008.0
20260509113600 73 128 12.0 21.0 0.04 0.04 0.04 97 1009.3
20260509113054 73 146 5.0 12.0 0.03 0.03 0.03 97 1010.2
20260509112556 74 156 4.0 12.0 0.03 0.03 0.03 97 1010.4
20260509112056 74 171 6.0 11.0 0.03 0.03 0.03 97 1010.5
20260509111554 74 159 5.0 11.0 0.02 0.02 0.02 97 1010.7
20260509111056 74 121 4.0 11.0 0.02 0.02 0.02 97 1010.7
20260509110556 74 157 5.0 9.0 0.01 0.01 0.01 97 1010.3
20260509110058 74 148 2.0 10.0 0.01 0.01 0.01 97 1010.2
20260509105556 74 203 5.0 10.0 0.01 0.01 0.01 97 1010.2
20260509105056 74 153 1.0 10.0 0.01 0.01 0.01 97 1010.0
20260509104608 74 96 2.0 10.0 0.00 0.00 0.00 97 1009.6
20260509104101 74 142 6.0 9.0 0.00 0.00 0.00 97 1008.8
20260509103555 74 182 3.0 7.0 0.00 0.00 0.00 97 1009.1
20260509103110 74 185 2.0 7.0 0.00 0.00 0.00 97 1009.4
20260509102558 74 165 4.0 7.0 0.00 0.00 0.00 97 1009.1
20260509102057 74 173 2.0 5.0 0.00 0.00 0.00 97 1009.4
20260509101556 74 173 1.0 6.0 0.00 0.00 0.00 97 1009.4
20260509101055 74 0 1.0 7.0 0.00 0.00 0.00 97 1009.4
20260509100556 74 173 2.0 7.0 0.00 0.00 0.00 97 1009.3
20260509100055 74 141 2.0 6.0 0.00 0.00 0.00 97 1009.3
20260509095557 74 102 2.0 6.0 0.00 0.00 0.00 97 1009.1
20260509095058 74 101 2.0 6.0 0.00 0.00 0.00 97 1008.8
20260509094623 74 98 1.0 4.0 0.00 0.00 0.00 97 1008.9
20260509094056 74 0 1.0 4.0 0.00 0.00 0.00 97 1009.0
20260509093556 73 98 1.0 4.0 0.00 0.00 0.00 97 1008.9
20260509093056 73 0 2.0 4.0 0.00 0.00 0.00 97 1008.9
20260509092555 74 98 2.0 6.0 0.00 0.00 0.00 97 1008.9
20260509092056 74 98 2.0 6.0 0.00 0.00 0.00 97 1009.0
20260509091556 74 0 2.0 6.0 0.00 0.00 0.00 97 1008.7
20260509091056 74 98 2.0 6.0 0.00 0.00 0.00 97 1008.6
20260509090556 74 96 1.0 4.0 0.00 0.00 0.00 97 1008.8
20260509090059 74 96 1.0 3.0 0.00 0.00 0.00 97 1008.8
20260509085555 74 96 0.0 0.0 0.00 0.00 0.00 97 1009.0
20260509085056 74 0 0.0 3.0 0.00 0.00 0.00 97 1008.9
20260509084607 73 0 0.0 4.0 0.00 0.00 0.00 97 1008.6
20260509084056 73 96 2.0 4.0 0.00 0.00 0.00 96 1008.3
20260509083557 73 96 2.0 4.0 0.00 0.00 0.00 96 1008.4
20260509083058 73 96 1.0 4.0 0.00 0.00 0.00 96 1008.4
20260509082556 73 96 2.0 7.0 0.00 0.00 0.00 96 1008.4
20260509082056 74 96 3.0 7.0 0.00 0.00 0.00 96 1008.4
20260509081557 74 95 3.0 7.0 0.00 0.00 0.00 96 1008.4
20260509081055 74 90 2.0 7.0 0.00 0.00 0.00 96 1008.6
20260509080557 74 88 3.0 7.0 0.00 0.00 0.00 96 1008.5
20260509075556 73 82 3.0 7.0 0.00 0.00 0.00 96 1008.7
20260509075056 73 81 3.0 7.0 0.00 0.00 0.00 96 1008.7
20260509074603 73 99 2.0 6.0 0.00 0.00 0.00 96 1008.9
20260509074055 73 100 2.0 7.0 0.00 0.00 0.00 96 1009.3
20260509073555 73 98 2.0 7.0 0.00 0.00 0.00 96 1009.3
20260509073059 73 84 3.0 7.0 0.00 0.00 0.00 96 1009.3
20260509072556 72 79 2.0 5.0 0.00 0.00 0.00 96 1009.2
20260509072055 72 73 2.0 4.0 0.00 0.00 0.00 96 1009.4
20260509071601 72 72 2.0 4.0 0.00 0.00 0.00 96 1009.5
20260509071055 72 69 0.0 2.0 0.00 0.00 0.00 96 1009.6
20260509070558 72 0 0.0 0.0 0.00 0.00 0.00 96 1009.6
20260509070105 72 0 0.0 3.0 0.00 0.00 0.00 96 1009.5
20260509065558 72 0 0.0 3.0 0.00 0.00 0.00 96 1009.6
20260509065057 72 69 1.0 3.0 0.00 0.00 0.00 95 1009.5
20260509064557 72 69 2.0 3.0 0.00 0.00 0.00 96 1009.4
20260509064059 72 0 0.0 0.0 0.00 0.00 0.00 96 1009.7
20260509063559 72 0 0.0 2.0 0.00 0.00 0.00 96 1009.9
20260509063110 72 0 0.0 4.0 0.00 0.00 0.00 96 1009.9
20260509062556 71 0 1.0 4.0 0.00 0.00 0.00 96 1009.8
20260509062055 71 78 1.0 3.0 0.00 0.00 0.00 95 1009.8
20260509061617 71 78 1.0 3.0 0.00 0.00 0.00 95 1009.8
20260509061055 71 78 1.0 3.0 0.00 0.00 0.00 95 1009.7